{"data":{"norad_id":64323,"intl_designator":"2025-124G","name":"STARLINK-11728 [DTC]","alt_names":[],"object_type":"PAYLOAD","status":"ACTIVE","operator":null,"country":"US","launch_date":"2025-06-10","launch_site_code":"AFETR","launch_vehicle":null,"mission":null,"orbit_class":"UNKNOWN","rcs_meters":null,"size_class":null,"mass_kg":null,"dimensions":null,"purposes":["comms"],"wikipedia_slug":null,"has_3d_model":false,"image_url":null,"decayed_at":null,"tle_current":{"epoch":"2026-09-20T19:04:33.466656Z","epoch_age_seconds":112177,"freshness":"FRESH","line1":"1 64323U 25124G   26263.79483179  .00160417  00000+0  12257-2 0  9996","line2":"2 64323  43.0007 292.8042 0001554 281.3699  78.6994 15.70917305 73522","mean_motion":15.70917305,"eccentricity":0.0001554,"inclination_deg":43.0007,"raan_deg":292.8042,"arg_perigee_deg":281.3699,"mean_anomaly_deg":78.6994,"bstar":0.0012257,"rev_number":7352,"period_min":91.666187355419,"perigee_km":355.22759098382,"apogee_km":357.32064595944,"semimajor_km":6734.4111184716,"source":"CELESTRAK","updated_at":"2026-09-21T09:00:35.311797Z"}}}